[[{"header":{"parameterUnit":"m.s-1","parameterCategory":1,"la1":30.2991,"la2":30.254,"lo1":-89.0895,"lo2":-89.0444,"dy":0.0017,"dx":0.0017,"nx":28,"ny":28,"refTime":"2023-07-30T21:00:00:Z","depth":0,"parameterNumber":2,"parameterNumberName":"U-component_of_WINDS"},"data":[0,0,0,0,0,0,0,0,0,0,0,0,0,0,0,0,0,0,0,0,0,0,0,0,0,0,0,0,0,0,0,0,0,0,0,0,0,0,0,0,0,0,0,0,0,0,0,0,0,0,0,0,0,0,0,0,0,0,0.4436,0.4438,0,0.4547,0.4548,0.4549,0.4603,0.4603,0.4603,0.4603,0.4721,0.4724,0.4727,0,0,0,0,0,0,0,0,0,0,0,0,0,0.4277,0.4279,0.4436,0.4438,0.4439,0.4547,0.4548,0.455,0.4603,0.4603,0.4603,0.4603,0.472,0.4724,0.4728,0,0,0,0,0,0,0,0,0,0,0,0,0,0.4362,0.428,0.4436,0.4479,0.4484,0.4546,0.4548,0.455,0.4603,0.4603,0.4603,0.4603,0.4719,0.4724,0.4728,0.4758,0,0,0.4743,0.4745,0,0,0,0,0,0,0,0,0.4357,0.4368,0.4471,0.4476,0.4482,0.4561,0.4535,0.462,0.4604,0.4558,0.4603,0.4603,0.4668,0.4677,0.4698,0.4764,0.4769,0.4743,0.4746,0.4748,0.4749,0,0,0,0,0,0,0,0.4351,0.4364,0.448,0.4473,0.4479,0.4494,0.4506,0.4551,0.4612,0.4562,0.4566,0.4578,0.4671,0.4693,0.4701,0.477,0.4743,0.4747,0.475,0.4752,0.4867,0.4867,0,0,0,0,0,0,0.4338,0.4359,0.4477,0.4484,0.4418,0.4497,0.451,0.4536,0.4612,0.4623,0.4578,0.458,0.4685,0.4696,0.4706,0.4746,0.4748,0.4752,0.4755,0.4866,0.4867,0.4867,0,0,0,0,0,0,0.4334,0.4348,0.4472,0.4422,0.4439,0.45,0.4528,0.4538,0.456,0.4624,0.4636,0.4589,0.4686,0.4699,0.4744,0.4751,0.4755,0.4759,0.4866,0.4867,0.4867,0.4826,0,0,0,0,0,0,0.433,0.4346,0.4357,0.4422,0.4442,0.4508,0.4528,0.454,0.4568,0.4572,0.4638,0.4649,0.4687,0.4737,0.4749,0.4757,0.4763,0.4866,0.4866,0.4867,0.4827,0.4825,0.4823,0,0,0,0,0,0.4324,0.4342,0.4357,0.4371,0.4456,0.4508,0.4519,0.4561,0.4568,0.458,0.4621,0.4646,0.4748,0.4741,0.4755,0.4765,0.4866,0.4866,0.4867,0.4828,0.4826,0.4823,0,0,0,0,0,0,0.4278,0.4352,0.4369,0.4409,0.4452,0.4517,0.4533,0.4557,0.46,0.4602,0.4654,0.4669,0.4709,0.4742,0.4733,0.4798,0.4809,0.4813,0.4775,0.4773,0.4771,0.4763,0.4766,0,0,0,0,0,0.4273,0.4307,0.437,0.4399,0.4419,0.4472,0.4497,0.4525,0.4572,0.4591,0.4635,0.4681,0.4723,0.475,0.4793,0.4832,0.4848,0.4846,0.4844,0.4842,0.4844,0.4868,0.4868,0.4868,0.4868,0.4868,0,0,0.4262,0.4306,0.4325,0.4391,0.4427,0.4463,0.4487,0.4524,0.4552,0.4597,0.4642,0.4676,0.4731,0.4774,0.4795,0.4802,0.4848,0.4843,0.4841,0.4844,0.4869,0.4869,0.4869,0.4869,0.4869,0.4869,0,0,0.4261,0.4297,0.4326,0.4361,0.4415,0.4451,0.4457,0.4519,0.4543,0.4589,0.4624,0.4658,0.4729,0.4767,0.4795,0.4808,0.4833,0.4821,0.481,0.4833,0.4833,0.4833,0.4839,0.484,0.4823,0.4823,0.4823,0,0.4241,0.4295,0.4338,0.4372,0.4401,0.4442,0.4472,0.4505,0.4571,0.459,0.4597,0.4688,0.4727,0.4779,0.4782,0.4804,0.4814,0.4814,0.4829,0.483,0.4831,0.4837,0.4838,0.4821,0.4821,0.4821,0.4821,0,0.4268,0.4305,0.4322,0.4382,0.4413,0.4445,0.4494,0.452,0.4546,0.4581,0.4628,0.4677,0.473,0.4744,0.4771,0.4801,0.4803,0.4819,0.4831,0.4828,0.4834,0.4837,0.4818,0.4819,0.4819,0.482,0,0,0.4241,0.4325,0.4331,0.4359,0.4422,0.4452,0.4486,0.4537,0.4558,0.4603,0.4634,0.4693,0.4708,0.474,0.4771,0.4791,0.4799,0.4805,0.4807,0.4802,0.4835,0.4823,0.4824,0.4815,0.4816,0.4816,0.4831,0,0.4249,0.4311,0.4351,0.4398,0.4433,0.4473,0.4503,0.4546,0.4579,0.4615,0.4653,0.4694,0.471,0.473,0.4752,0.4793,0.4806,0.4793,0.4846,0.4847,0.4831,0.4828,0.4815,0.4826,0.4833,0.4834,0.4834,0,0.4266,0.4308,0.4358,0.4417,0.4433,0.4459,0.4509,0.4542,0.4592,0.4615,0.4651,0.4682,0.4722,0.473,0.4786,0.4776,0.48,0.4824,0.4825,0.4832,0.4841,0.4835,0.483,0.4832,0.4838,0.4838,0.4837,0,0.4242,0.4311,0.435,0.4373,0.4442,0.446,0.449,0.454,0.4567,0.4611,0.463,0.4678,0.4705,0.4743,0.4787,0.4789,0.4838,0.485,0.486,0.4859,0.4869,0.4868,0.4868,0.4884,0.4884,0.4884,0.4884,0,0.4247,0.4276,0.434,0.4363,0.4398,0.4444,0.4477,0.4511,0.4554,0.4586,0.4624,0.4654,0.471,0.4747,0.4782,0.4823,0.4835,0.4856,0.4865,0.4853,0.485,0.487,0.487,0.4884,0.4884,0.4884,0.4884,0,0.4225,0.4269,0.4314,0.4376,0.4393,0.4415,0.4469,0.4495,0.453,0.457,0.4582,0.4639,0.4684,0.4731,0.4794,0.4817,0.4857,0.487,0.484,0.4845,0.4852,0.4851,0.4866,0.487,0.4882,0.4881,0.4881,0,0.4225,0.4249,0.4313,0.4336,0.4365,0.4403,0.4431,0.4478,0.4506,0.4564,0.4583,0.4631,0.4672,0.4743,0.479,0.4838,0.4852,0.4854,0.486,0.4847,0.4853,0.4851,0.4854,0.4852,0.4852,0.4851,0.4851,0,0.4221,0.4242,0.428,0.4326,0.4359,0.4398,0.4438,0.4456,0.4511,0.4541,0.4587,0.4618,0.4681,0.4729,0.4782,0.4815,0.4843,0.4849,0.4854,0.4842,0.4823,0.4834,0.4835,0.4849,0.4849,0.4849,0.4849,0.4849,0.4211,0.4233,0.4282,0.4324,0.4359,0.4396,0.4423,0.4461,0.45,0.4554,0.458,0.4626,0.4676,0.475,0.4782,0.482,0.4828,0.4835,0.4837,0.4838,0.4835,0.4817,0.483,0.4831,0.4831,0.4831,0.4831,0,0.4209,0.4242,0.428,0.4335,0.4368,0.4389,0.4436,0.4462,0.4502,0.4546,0.4585,0.4638,0.4684,0.4735,0.4785,0.4805,0.4819,0.4817,0.4816,0.4823,0.4825,0.4816,0.4805,0.4805,0.4805,0.4805,0.4805,0.4805,0.4211,0.4251,0.4277,0.4334,0.4368,0.4412,0.4437,0.4472,0.4507,0.4564,0.4602,0.4634,0.4681,0.4735,0.4778,0.4792,0.4809,0.4803,0.4821,0.4821,0.4823,0.4825,0.4817,0.4806,0.4806,0.4816,0.4816,0.4816]},{"header":{"parameterUnit":"m.s-1","parameterCategory":1,"la1":30.2991,"la2":30.254,"lo1":-89.0895,"lo2":-89.0444,"dy":0.0017,"dx":0.0017,"nx":28,"ny":28,"refTime":"2023-07-30T21:00:00:Z","depth":0,"parameterNumber":3,"parameterNumberName":"V-component_of_WINDS"},"data":[0,0,0,0,0,0,0,0,0,0,0,0,0,0,0,0,0,0,0,0,0,0,0,0,0,0,0,0,0,0,0,0,0,0,0,0,0,0,0,0,0,0,0,0,0,0,0,0,0,0,0,0,0,0,0,0,0,0,2.8298,2.8298,0,2.8242,2.8241,2.8241,2.8184,2.8183,2.8182,2.8182,2.8123,2.8122,2.8121,0,0,0,0,0,0,0,0,0,0,0,0,0,2.8354,2.8354,2.8298,2.8298,2.8297,2.8242,2.8241,2.8241,2.8184,2.8183,2.8182,2.8181,2.8123,2.8122,2.8121,0,0,0,0,0,0,0,0,0,0,0,0,0,2.8317,2.8353,2.8298,2.8262,2.8258,2.8242,2.8241,2.824,2.8184,2.8183,2.8182,2.8181,2.8124,2.8122,2.8121,2.8136,0,0,2.8117,2.8117,0,0,0,0,0,0,0,0,2.8319,2.8315,2.8268,2.8265,2.826,2.8219,2.824,2.8206,2.8184,2.8212,2.8182,2.818,2.8156,2.8152,2.8144,2.8134,2.8131,2.8117,2.8116,2.8116,2.8116,0,0,0,0,0,0,0,2.8322,2.8317,2.8276,2.8267,2.8263,2.8248,2.8241,2.8233,2.8191,2.821,2.8206,2.82,2.8153,2.8145,2.8142,2.813,2.8117,2.8116,2.8115,2.8115,2.8126,2.8127,0,0,0,0,0,0,2.833,2.832,2.8278,2.8274,2.8288,2.8248,2.824,2.8233,2.8191,2.8184,2.8201,2.8197,2.8148,2.8144,2.814,2.8151,2.8116,2.8115,2.8114,2.8125,2.8126,2.8127,0,0,0,0,0,0,2.8332,2.8327,2.828,2.8296,2.8289,2.8248,2.824,2.8233,2.8224,2.8184,2.8176,2.82,2.8147,2.8141,2.8137,2.8149,2.8114,2.8113,2.8124,2.8125,2.8127,2.8177,0,0,0,0,0,0,2.8334,2.8328,2.8334,2.8297,2.8288,2.8279,2.8241,2.8232,2.8222,2.8217,2.8181,2.8174,2.8145,2.8139,2.8136,2.8146,2.8112,2.8122,2.8124,2.8126,2.8174,2.8181,2.8186,0,0,0,0,0,2.8336,2.8351,2.8335,2.833,2.8295,2.828,2.8275,2.8242,2.8224,2.8228,2.8202,2.8176,2.8149,2.8139,2.8135,2.8145,2.8121,2.8124,2.8126,2.8172,2.8179,2.8186,0,0,0,0,0,0,2.8391,2.8346,2.8327,2.833,2.8309,2.827,2.8275,2.8251,2.8235,2.823,2.819,2.8182,2.8181,2.8163,2.8153,2.8156,2.8131,2.8133,2.8167,2.8174,2.818,2.8183,2.8111,0,0,0,0,0,2.8404,2.8396,2.8357,2.8363,2.8354,2.8317,2.8309,2.8285,2.8261,2.8252,2.8226,2.8204,2.8189,2.8181,2.8167,2.8172,2.8162,2.8177,2.8183,2.8188,2.8189,2.8187,2.8193,2.8135,2.8135,2.8135,0,0,2.843,2.8404,2.8401,2.8374,2.8355,2.8346,2.831,2.8303,2.8296,2.8251,2.8244,2.8224,2.8196,2.8196,2.8195,2.8181,2.8203,2.8191,2.8195,2.8193,2.819,2.8196,2.8201,2.8137,2.8136,2.8136,0,0,2.8471,2.8453,2.8454,2.8436,2.8407,2.8382,2.8383,2.8348,2.8332,2.8325,2.829,2.8281,2.8259,2.824,2.8227,2.826,2.8234,2.8257,2.8285,2.8284,2.8289,2.8293,2.8301,2.8305,2.8259,2.8259,2.8259,0,2.8507,2.8493,2.8459,2.8453,2.8441,2.8401,2.8401,2.8385,2.8353,2.8345,2.8331,2.83,2.8279,2.8272,2.828,2.8272,2.8269,2.826,2.8291,2.8295,2.8298,2.8305,2.8309,2.8261,2.8261,2.8261,2.8261,0,2.8536,2.8528,2.8533,2.8502,2.8491,2.8489,2.8453,2.8446,2.8423,2.8399,2.839,2.8364,2.8341,2.8338,2.8316,2.8327,2.8319,2.8299,2.8272,2.8306,2.8313,2.8316,2.8265,2.8264,2.8264,2.8263,0,0,2.861,2.856,2.8562,2.8547,2.8512,2.8504,2.85,2.8478,2.8471,2.8451,2.8444,2.8425,2.8405,2.8391,2.8366,2.8366,2.839,2.8345,2.8343,2.8351,2.8397,2.8411,2.8415,2.8373,2.8374,2.8374,2.8398,0,2.8643,2.8632,2.8601,2.8599,2.8589,2.855,2.8546,2.8524,2.8501,2.8489,2.8464,2.845,2.8426,2.8417,2.8415,2.8388,2.8398,2.8386,2.8364,2.8364,2.837,2.8419,2.8434,2.8458,2.8401,2.8401,2.8402,0,2.868,2.8661,2.8659,2.8623,2.8617,2.8614,2.859,2.858,2.8553,2.8536,2.852,2.8492,2.8483,2.8461,2.8446,2.8439,2.8428,2.8413,2.8413,2.8408,2.8383,2.8412,2.8465,2.8467,2.8406,2.8406,2.8405,0,2.873,2.8704,2.8699,2.8687,2.8646,2.8644,2.8627,2.8599,2.8587,2.8567,2.8558,2.8537,2.8525,2.8508,2.8475,2.8462,2.8463,2.8438,2.8447,2.8448,2.8447,2.8447,2.8496,2.8445,2.8445,2.8445,2.8445,0,2.8768,2.8767,2.872,2.8716,2.8714,2.8677,2.8675,2.8654,2.863,2.862,2.8586,2.8578,2.8535,2.8522,2.8496,2.8486,2.8482,2.8466,2.8459,2.8468,2.8469,2.8458,2.8455,2.8446,2.8446,2.8446,2.8446,0,2.8822,2.8791,2.8781,2.8743,2.8734,2.8733,2.8699,2.8693,2.8669,2.8657,2.8652,2.8614,2.8596,2.8561,2.8534,2.8516,2.8511,2.85,2.852,2.8515,2.8524,2.8523,2.8566,2.8569,2.8519,2.8519,2.852,0,2.8847,2.8845,2.8807,2.8798,2.8782,2.8769,2.8757,2.8721,2.8709,2.8678,2.8675,2.8654,2.8635,2.8608,2.8576,2.8554,2.8541,2.8557,2.8537,2.8545,2.8537,2.8537,2.8535,2.8561,2.8562,2.8562,2.8563,0,2.8894,2.8878,2.8862,2.8841,2.8827,2.8808,2.8788,2.8782,2.8741,2.873,2.8711,2.8696,2.8668,2.8646,2.862,2.86,2.8574,2.857,2.857,2.8578,2.8588,2.858,2.8529,2.8568,2.8568,2.8568,2.8567,2.8567,2.8931,2.8927,2.8899,2.8882,2.8863,2.8844,2.8836,2.8811,2.8795,2.8769,2.8749,2.8731,2.8702,2.8663,2.8645,2.863,2.8617,2.8619,2.8618,2.8619,2.8621,2.8593,2.8625,2.8625,2.8625,2.8624,2.8624,0,2.8974,2.8954,2.8939,2.8911,2.8897,2.8875,2.8851,2.884,2.8825,2.8801,2.8783,2.8761,2.874,2.8707,2.8682,2.8676,2.8663,2.8671,2.8669,2.8665,2.8635,2.8635,2.8681,2.8681,2.8681,2.8681,2.8681,2.8681,2.8994,2.8985,2.8966,2.8947,2.8926,2.8909,2.8897,2.8878,2.8859,2.8835,2.8818,2.8797,2.8769,2.8742,2.8721,2.8712,2.8703,2.8714,2.87,2.8672,2.8667,2.8662,2.8662,2.8713,2.8713,2.8731,2.8731,2.8732]}]]